FW0554 Weather Reports


Display with metric or nautical units.
time (UTC)temp
F
wind
direction
speed
MPH
gust
MPH
rain 1hr
in
rain 24hr
in
rain mn
in
humidity
%
barometer
mb
20260503032602 48 189 0.0 0.0 0.00 0.11 0.11 92 1001.8
20260503032043 48 189 0.0 0.0 0.00 0.11 0.11 92 1001.7
20260503031043 48 189 0.0 0.0 0.00 0.11 0.11 92 1001.5
20260503025602 49 189 0.0 0.0 0.00 0.11 0.11 91 1001.5
20260503024601 49 189 0.0 0.0 0.00 0.11 0.11 91 1001.4
20260503023601 49 189 0.0 0.0 0.00 0.11 0.11 91 1001.3
20260503022600 50 189 0.0 0.0 0.00 0.11 0.11 91 1001.3
20260503021603 50 189 0.0 0.0 0.00 0.11 0.11 91 1001.2
20260503021537 50 189 0.0 0.0 0.00 0.11 0.11 91 1001.3
20260503015559 50 189 0.0 0.0 0.00 0.11 0.11 90 1001.1
20260503014559 51 189 0.0 0.0 0.00 0.11 0.11 90 1001.3
20260503013557 51 189 0.0 0.0 0.00 0.11 0.11 90 1001.2
20260503012557 51 189 0.0 0.0 0.00 0.11 0.11 89 1001.0
20260503011554 51 189 0.0 0.0 0.00 0.11 0.11 88 1001.0
20260503011040 52 189 0.0 0.0 0.00 0.11 0.11 88 1000.8
20260503005554 52 189 0.0 0.0 0.00 0.11 0.11 87 1000.7
20260503004553 53 189 0.0 0.0 0.00 0.11 0.11 86 1000.6
20260503004040 54 189 0.0 0.0 0.00 0.11 0.11 86 1000.3
20260503002549 54 189 0.0 0.0 0.00 0.11 0.11 85 1000.2
20260503002029 55 189 0.0 0.0 0.00 0.11 0.11 85 1000.2
20260503000544 55 189 0.0 0.0 0.00 0.11 0.11 84 999.9
20260502235544 56 189 0.0 0.0 0.00 0.11 0.11 83 999.9
20260502234544 56 189 0.0 0.0 0.00 0.11 0.11 83 999.7
20260502233545 56 189 0.0 0.0 0.00 0.11 0.11 83 999.4
20260502232541 56 189 0.0 0.0 0.00 0.11 0.11 82 999.4
20260502232021 56 189 0.0 0.0 0.00 0.11 0.11 82 999.4
20260502230539 56 189 0.0 0.0 0.00 0.11 0.11 82 999.4
20260502225539 56 189 0.0 0.0 0.00 0.11 0.11 82 999.3
20260502224536 56 189 0.0 0.0 0.00 0.11 0.11 82 999.2
20260502223537 56 189 0.0 0.0 0.00 0.11 0.11 81 999.3
20260502222534 56 189 0.0 1.0 0.00 0.11 0.11 81 999.2
20260502221536 57 189 0.0 0.0 0.00 0.11 0.11 80 999.1
20260502221015 57 189 1.0 3.0 0.00 0.11 0.11 79 999.2
20260502220022 57 144 1.0 3.0 0.00 0.11 0.11 77 999.0
20260502214531 57 82 1.0 3.0 0.00 0.11 0.11 77 999.0
20260502213530 57 76 2.0 4.0 0.00 0.11 0.11 76 998.9
20260502212530 57 84 0.0 3.0 0.00 0.11 0.11 76 998.9
20260502212017 57 83 1.0 4.0 0.00 0.11 0.11 75 999.1
20260502210531 58 83 2.0 4.0 0.00 0.11 0.11 75 998.9
20260502205529 58 101 1.0 4.0 0.00 0.11 0.11 75 998.9
20260502204529 58 123 1.0 3.0 0.00 0.11 0.11 74 999.0
20260502203529 58 122 2.0 6.0 0.00 0.11 0.11 74 999.0
20260502203024 58 31 1.0 4.0 0.00 0.11 0.11 74 999.0
20260502201529 58 49 2.0 5.0 0.00 0.11 0.11 73 999.0
20260502200529 58 26 1.0 4.0 0.00 0.11 0.11 73 999.0
20260502195529 58 26 2.0 7.0 0.00 0.11 0.11 74 998.9
20260502194530 58 91 2.0 7.0 0.00 0.11 0.11 75 999.1
20260502194001 58 67 3.0 8.0 0.00 0.11 0.11 76 999.3
20260502192530 58 110 2.0 6.0 0.00 0.11 0.11 77 999.5
20260502191529 58 70 2.0 4.0 0.00 0.11 0.11 78 999.6
20260502190530 57 105 3.0 8.0 0.00 0.11 0.11 78 999.6
20260502185530 57 107 2.0 5.0 0.00 0.11 0.11 78 999.6
20260502184529 57 122 2.0 4.0 0.00 0.11 0.11 80 999.6
20260502183529 57 108 3.0 9.0 0.00 0.11 0.11 79 999.8
20260502182531 57 98 3.0 9.0 0.00 0.11 0.11 80 999.8
20260502181529 57 100 2.0 5.0 0.00 0.11 0.11 83 1000.0
20260502180529 55 108 3.0 7.0 0.00 0.11 0.11 84 1000.3
20260502163528 54 48 2.0 6.0 0.00 0.11 0.11 89 1000.9
20260502162526 54 62 2.0 5.0 0.00 0.11 0.11 89 1001.0
20260502161525 54 66 2.0 5.0 0.01 0.11 0.11 89 1001.1
20260502160523 54 118 1.0 7.0 0.01 0.11 0.11 89 1001.5
20260502151520 54 68 1.0 4.0 0.02 0.10 0.10 90 1000.8
20260502150517 54 29 1.0 3.0 0.02 0.10 0.10 90 1001.0
20260502130509 53 354 0.0 5.0 0.01 0.02 0.02 88 1000.2
20260502123506 53 358 0.0 3.0 0.01 0.01 0.01 88 1000.2
20260502122506 53 12 0.0 2.0 0.01 0.01 0.01 88 1000.2
20260502121504 53 14 0.0 0.0 0.01 0.01 0.01 87 999.8
20260502120949 53 14 0.0 2.0 0.01 0.01 0.01 87 999.8
20260502115501 53 321 0.0 1.0 0.01 0.01 0.01 87 999.9
20260502114501 53 346 0.0 3.0 0.01 0.01 0.01 87 999.9
20260502113501 53 342 0.0 5.0 0.00 0.00 0.00 87 1000.0
20260502112502 53 355 0.0 4.0 0.00 0.00 0.00 87 999.9
20260502111502 54 341 0.0 0.0 0.00 0.00 0.00 87 999.9
20260502110502 54 341 0.0 0.0 0.00 0.00 0.00 87 1000.3
20260502105501 54 341 0.0 3.0 0.00 0.00 0.00 87 1000.2
20260502104946 54 341 0.0 3.0 0.00 0.00 0.00 87 1000.1
20260502103502 54 343 0.0 0.0 0.00 0.00 0.00 87 1000.1
20260502102502 54 340 0.0 0.0 0.00 0.00 0.00 88 1000.3
20260502101501 54 342 0.0 0.0 0.00 0.00 0.00 88 1000.3
20260502100456 54 342 0.0 5.0 0.00 0.00 0.00 88 1000.3
20260502091453 54 263 0.0 0.0 0.00 0.00 0.00 88 1000.4
20260502090453 54 262 0.0 0.0 0.00 0.00 0.00 88 1000.2
20260502071431 54 253 0.0 0.0 0.00 0.00 0.00 89 999.3
20260502070430 54 253 0.0 0.0 0.00 0.00 0.00 89 999.3
20260502065911 54 253 0.0 0.0 0.00 0.00 0.00 89 999.3
20260502064431 54 253 0.0 0.0 0.00 0.00 0.00 88 999.4
20260502063429 54 253 0.0 0.0 0.00 0.00 0.00 88 999.5
20260502062429 54 253 0.0 0.0 0.00 0.00 0.00 88 999.5
20260502061918 54 253 0.0 0.0 0.00 0.00 0.00 88 999.7
20260502060910 54 253 0.0 0.0 0.00 0.00 0.00 87 999.7
20260502055426 54 253 0.0 0.0 0.00 0.00 0.00 87 999.6
20260502054427 54 253 0.0 0.0 0.00 0.00 0.00 87 999.6
20260502053426 54 253 0.0 0.0 0.00 0.00 0.00 87 999.9
20260502052426 54 253 0.0 0.0 0.00 0.00 0.00 87 1000.0
20260502051423 54 253 0.0 0.0 0.00 0.00 0.00 87 1000.1
20260502051053 54 253 0.0 0.0 0.00 0.00 0.00 86 1000.2
20260502050859 55 253 0.0 0.0 0.00 0.00 0.00 86 1000.3
20260502044424 55 253 0.0 0.0 0.00 0.00 0.00 85 1000.4
20260502043420 55 253 0.0 0.0 0.00 0.00 0.00 85 1000.4
20260502042419 55 253 0.0 0.0 0.00 0.00 0.00 85 1000.4
20260502041416 55 253 0.0 0.0 0.00 0.00 0.00 85 1000.4
20260502040417 55 253 0.0 0.0 0.00 0.00 0.00 85 1000.5
20260502035414 55 253 0.0 0.0 0.00 0.00 0.00 85 1000.4
20260502034415 55 253 0.0 0.0 0.00 0.00 0.00 84 1000.5
20260502033412 55 253 0.0 0.0 0.00 0.00 0.00 85 1000.3